sat.trackr.live / text

‹ back to catalog

STARLINK-6075

NORAD 56102 · 2023-046K

PAYLOAD ACTIVE UNKNOWN

§ Identity

Operator
Country
US
Launch date
2023-03-29
Launch site
AFETR
Launch vehicle
Mass (kg)
RCS (m²)

Purposes: comms

External: N2YO · Heavens-Above · Gunter

§ Orbital elements

Epoch: 2026-05-25T04:45:04.392864Z

Period
94.27 min
Inclination
43.0021°
Eccentricity
0.0000642
Mean motion
15.27578329 rev/d
Perigee alt
482.6 km
Apogee alt
483.5 km
Semi-major
6,861.2 km
B*
4.1436e-5
RAAN
89.3706°
Arg perigee
282.2229°
Mean anomaly
77.8551°
Rev number
17,373

§ Raw data

STARLINK-60751 56102U 23046K   26145.19796751  .00000878  00000+0  41436-4 0  99962 56102  43.0021  89.3706 0000642 282.2229  77.8551 15.27578329173731

JSON: /api/v1/satellites/56102 · /tle

For live sub-satellite position, see the globe view (requires WebGL).

§ Visibility from observer

Set your observer location to see the next 7 days of passes ≥ 10°. The values pass through the URL so the page stays shareable.

No JS? Fill the form by hand. The geolocation button needs JavaScript.